Content
SEND FEEDBACK

Daily
Averages
Monthly
Summary
United States of America

ANN ARBOR, MICHIGAN


Home > North America > United States > Michigan
Elevation: 759 feet     Latitude: 42 17N     Longitude: 083 43W

WEATHER
 
SELECT A DAY
Number of Records: 203,747;   Date Range: 1/1/95 - 8/17/14
 
SHARE

PRINT THIS DATA

[ ← Previous Day ]
WEATHER ALMANAC - NOVEMBER 5, 2013
[ Next Day → ]
[ °C ]   °F
Weather ElementAverageHighLow
Temperature47.9 °F54 °F (2:53 pm)35.1 °F (1:53 am)
Dewpoint42.1 °F46.9 °F (4:53 pm)32 °F (1:53 am)
Humidity80.5 %89 % (1:53 am)71 % (12:53 pm)
Barometer30.31 in30.37 in (8:53 am)30.18 in (11:53 pm)
Wind Speed4.7 mph8.1 mph (2:53 pm)
Weather ElementAverage
Visibility9.9 mi
Wind DirectionSSE (158.7 °)

Weather ElementTotal
Precipitation---
Heating Degree Days20.5 (Base 65)
Averaged from 23 records on November 5, 2013
WEATHER CONDITIONS BREAKOUT
WIND DIRECTION BREAKOUT
WEATHER BY HOUR - NOVEMBER 5, 2013
[ °C ]   °F
Local TimeTemperatureDewpointHumidityBarometerVisibilityWind DirectionWind SpeedGust SpeedPrecipitationEventsConditions
1:53 AM35.1 °F32.0 °F89 %30.32 in10.0 miCalmMostly Cloudy
2:53 AM37.0 °F34.0 °F89 %30.33 in10.0 miCalmOvercast
3:53 AM39.0 °F35.1 °F86 %30.32 in10.0 miCalmScattered Clouds
4:53 AM43.0 °F37.9 °F82 %30.34 in10.0 miSSW (210°)6.9 mphOvercast
5:53 AM43.0 °F39.0 °F86 %30.33 in10.0 miSSW (200°)4.6 mphOvercast
6:53 AM45.0 °F39.0 °F80 %30.35 in10.0 miSSW (210°)3.5 mphOvercast
7:53 AM45.0 °F39.9 °F82 %30.36 in10.0 miSSW (210°)3.5 mphOvercast
8:53 AM46.0 °F41.0 °F83 %30.37 in10.0 miSSW (210°)3.5 mphOvercast
9:53 AM48.0 °F41.0 °F77 %30.36 in10.0 miSSW (200°)5.8 mphOvercast
10:53 AM48.9 °F42.1 °F77 %30.37 in10.0 miSouth (190°)6.9 mphOvercast
11:53 AM51.1 °F43.0 °F74 %30.35 in10.0 miSSW (200°)6.9 mphOvercast
12:53 PM52.0 °F43.0 °F71 %30.34 in10.0 miSSW (210°)6.9 mphOvercast
1:53 PM53.1 °F44.1 °F71 %30.32 in10.0 miSSW (200°)5.8 mphOvercast
2:53 PM54.0 °F45.0 °F72 %30.31 in10.0 miSouth (190°)8.1 mphOvercast
3:53 PM54.0 °F46.0 °F75 %30.31 in10.0 miSSW (200°)8.1 mphOvercast
4:53 PM53.1 °F46.9 °F80 %30.29 in10.0 miSSW (200°)5.8 mphOvercast
5:53 PM51.1 °F46.9 °F86 %30.29 in10.0 miSouth (180°)3.5 mphClear
6:53 PM50.0 °F46.0 °F86 %30.28 in9.0 miCalmPartly Cloudy
7:53 PM50.0 °F46.9 °F89 %30.26 in9.0 miSSE (150°)4.6 mphOvercast
8:53 PM51.1 °F46.9 °F86 %30.25 in9.0 miSSE (160°)6.9 mphMostly Cloudy
9:53 PM52.0 °F45.0 °F77 %30.23 in10.0 miSouth (170°)4.6 mphPartly Cloudy
10:53 PM51.1 °F44.1 °F77 %30.20 in10.0 miSouth (180°)6.9 mphOvercast
11:53 PM50.0 °F43.0 °F77 %30.18 in10.0 miSouth (180°)5.8 mphClear
Hourly data recorded from KARB, located miles away from Ann Arbor, Michigan







STORIES FROM OUR PARTNERS